| time (UTC) | temp C | wind direction | speed KPH | gust KPH | rain 1hr cm | rain 24hr cm | rain mn cm | humidity % | barometer mb |
| 20260506195901 | 27 | 58 | 0.0 | 22.5 | 0.00 | 0.00 | 0.00 | 83 | 982.9 |
| 20260506195400 | 27 | 60 | 1.6 | 22.5 | 0.00 | 0.00 | 0.00 | 84 | 983.8 |
| 20260506194859 | 26 | 85 | 1.6 | 22.5 | 0.00 | 0.00 | 0.00 | 82 | 984.9 |
| 20260506194358 | 26 | 68 | 3.2 | 22.5 | 0.00 | 0.00 | 0.00 | 84 | 985.9 |
| 20260506193857 | 25 | 48 | 4.8 | 22.5 | 0.00 | 0.00 | 0.00 | 83 | 985.4 |
| 20260506193356 | 25 | 26 | 3.2 | 22.5 | 0.00 | 0.00 | 0.00 | 83 | 985.7 |
| 20260506192855 | 25 | 46 | 3.2 | 22.5 | 0.00 | 0.00 | 0.00 | 84 | 986.5 |
| 20260506192354 | 25 | 60 | 1.6 | 22.5 | 0.00 | 0.00 | 0.00 | 84 | 987.6 |
| 20260506191853 | 25 | 23 | 3.2 | 22.5 | 0.00 | 0.00 | 0.00 | 84 | 988.8 |
| 20260506191352 | 24 | 37 | 3.2 | 22.5 | 0.00 | 0.00 | 0.00 | 83 | 989.2 |
| 20260506190851 | 24 | 2 | 3.2 | 22.5 | 0.00 | 0.00 | 0.00 | 85 | 991.3 |
| 20260506190350 | 23 | 336 | 6.4 | 22.5 | 0.00 | 0.00 | 0.00 | 85 | 992.1 |
| 20260506185849 | 23 | 28 | 3.2 | 22.5 | 0.00 | 0.00 | 0.00 | 87 | 992.4 |
| 20260506185348 | 23 | 337 | 1.6 | 22.5 | 0.00 | 0.00 | 0.00 | 88 | 995.1 |
| 20260506184847 | 22 | 14 | 1.6 | 22.5 | 0.00 | 0.00 | 0.00 | 88 | 996.5 |
| 20260506184346 | 22 | 326 | 6.4 | 22.5 | 0.00 | 0.00 | 0.00 | 89 | 998.9 |
| 20260506183845 | 22 | 323 | 4.8 | 22.5 | 0.00 | 0.00 | 0.00 | 89 | 999.5 |
| 20260506183344 | 21 | 316 | 6.4 | 22.5 | 0.00 | 0.00 | 0.00 | 89 | 1000.6 |
| 20260506182843 | 21 | 312 | 11.3 | 22.5 | 0.00 | 0.00 | 0.00 | 88 | 1000.8 |
| 20260506182342 | 21 | 318 | 11.3 | 22.5 | 0.00 | 0.00 | 0.00 | 87 | 1000.7 |
| 20260506181841 | 22 | 308 | 11.3 | 22.5 | 0.00 | 0.00 | 0.00 | 88 | 999.8 |
| 20260506181340 | 21 | 310 | 12.9 | 24.1 | 0.00 | 0.00 | 0.00 | 88 | 999.7 |
| 20260506180839 | 22 | 317 | 17.7 | 24.1 | 0.00 | 0.00 | 0.00 | 87 | 998.0 |
| 20260506180338 | 22 | 320 | 14.5 | 24.1 | 0.00 | 0.00 | 0.00 | 87 | 995.0 |
| 20260506175837 | 22 | 319 | 12.9 | 24.1 | 0.00 | 0.00 | 0.00 | 86 | 992.5 |
| 20260506175336 | 23 | 315 | 16.1 | 22.5 | 0.00 | 0.00 | 0.00 | 83 | 990.1 |
| 20260506174836 | 26 | 298 | 11.3 | 20.9 | 0.00 | 0.00 | 0.00 | 77 | 983.9 |
| 20260506174335 | 27 | 165 | 4.8 | 17.7 | 0.00 | 0.00 | 0.00 | 85 | 982.0 |
| 20260506173834 | 27 | 165 | 1.6 | 17.7 | 0.00 | 0.00 | 0.00 | 85 | 981.0 |
| 20260506173332 | 27 | 161 | 1.6 | 17.7 | 0.00 | 0.00 | 0.00 | 85 | 982.2 |
| 20260506172316 | 26 | 161 | 3.2 | 17.7 | 0.00 | 0.00 | 0.00 | 86 | 984.8 |
| 20260506171814 | 26 | 161 | 3.2 | 17.7 | 0.00 | 0.00 | 0.00 | 86 | 984.7 |
| 20260506171313 | 26 | 161 | 3.2 | 17.7 | 0.00 | 0.00 | 0.00 | 87 | 985.4 |
| 20260506170256 | 26 | 162 | 0.0 | 17.7 | 0.00 | 0.00 | 0.00 | 87 | 987.1 |
| 20260506165755 | 26 | 161 | 1.6 | 17.7 | 0.00 | 0.00 | 0.00 | 87 | 986.6 |
| 20260506165255 | 26 | 161 | 3.2 | 17.7 | 0.00 | 0.00 | 0.00 | 88 | 984.8 |
| 20260506164754 | 26 | 161 | 0.0 | 17.7 | 0.00 | 0.00 | 0.00 | 88 | 986.9 |
| 20260506163736 | 26 | 161 | 1.6 | 17.7 | 0.00 | 0.00 | 0.00 | 89 | 986.3 |
| 20260506163236 | 26 | 162 | 1.6 | 17.7 | 0.00 | 0.00 | 0.00 | 88 | 987.1 |
| 20260506162735 | 26 | 162 | 0.0 | 17.7 | 0.00 | 0.00 | 0.00 | 89 | 987.3 |
| 20260506162234 | 26 | 162 | 1.6 | 17.7 | 0.00 | 0.00 | 0.00 | 89 | 987.5 |
| 20260506161733 | 26 | 161 | 0.0 | 17.7 | 0.00 | 0.00 | 0.00 | 89 | 985.7 |
| 20260506161232 | 26 | 161 | 1.6 | 17.7 | 0.00 | 0.00 | 0.00 | 89 | 984.2 |
| 20260506160731 | 25 | 161 | 0.0 | 17.7 | 0.00 | 0.00 | 0.00 | 90 | 986.2 |
| 20260506160230 | 25 | 161 | 1.6 | 17.7 | 0.00 | 0.00 | 0.00 | 90 | 985.4 |
| 20260506155213 | 25 | 162 | 0.0 | 17.7 | 0.00 | 0.00 | 0.00 | 91 | 989.6 |
| 20260506154712 | 25 | 162 | 1.6 | 17.7 | 0.00 | 0.00 | 0.00 | 91 | 990.2 |
| 20260506154211 | 25 | 162 | 1.6 | 17.7 | 0.00 | 0.00 | 0.00 | 91 | 990.5 |
| 20260506153710 | 25 | 162 | 0.0 | 17.7 | 0.00 | 0.00 | 0.00 | 92 | 991.0 |
| 20260506153209 | 25 | 162 | 1.6 | 17.7 | 0.00 | 0.00 | 0.00 | 92 | 991.7 |
| 20260506152708 | 25 | 162 | 4.8 | 17.7 | 0.00 | 0.00 | 0.00 | 92 | 991.4 |
| 20260506151651 | 25 | 162 | 3.2 | 17.7 | 0.00 | 0.00 | 0.00 | 92 | 990.3 |
| 20260506151150 | 25 | 162 | 0.0 | 17.7 | 0.00 | 0.00 | 0.00 | 92 | 990.6 |
| 20260506150649 | 25 | 162 | 1.6 | 17.7 | 0.00 | 0.00 | 0.00 | 92 | 990.5 |
| 20260506150148 | 25 | 162 | 0.0 | 17.7 | 0.00 | 0.00 | 0.00 | 92 | 991.0 |
| 20260506145647 | 25 | 162 | 0.0 | 17.7 | 0.00 | 0.00 | 0.00 | 92 | 991.0 |
| 20260506145146 | 25 | 162 | 0.0 | 17.7 | 0.00 | 0.00 | 0.00 | 92 | 990.7 |
| 20260506144645 | 25 | 162 | 1.6 | 17.7 | 0.00 | 0.00 | 0.00 | 92 | 990.6 |
| 20260506143628 | 25 | 162 | 3.2 | 17.7 | 0.00 | 0.00 | 0.00 | 93 | 991.1 |
| 20260506143127 | 25 | 162 | 0.0 | 17.7 | 0.00 | 0.00 | 0.00 | 93 | 991.8 |
| 20260506142625 | 25 | 162 | 1.6 | 17.7 | 0.00 | 0.00 | 0.00 | 93 | 991.8 |
| 20260506142124 | 25 | 162 | 3.2 | 17.7 | 0.00 | 0.00 | 0.00 | 93 | 991.5 |
| 20260506141623 | 25 | 162 | 1.6 | 17.7 | 0.00 | 0.00 | 0.00 | 93 | 991.6 |
| 20260506141122 | 25 | 162 | 3.2 | 17.7 | 0.00 | 0.00 | 0.00 | 93 | 991.9 |
| 20260506140621 | 25 | 162 | 1.6 | 17.7 | 0.00 | 0.00 | 0.00 | 93 | 992.7 |
| 20260506140120 | 24 | 162 | 4.8 | 17.7 | 0.00 | 0.00 | 0.00 | 93 | 992.8 |
| 20260506135619 | 24 | 162 | 4.8 | 17.7 | 0.00 | 0.00 | 0.00 | 93 | 992.4 |
| 20260506135118 | 24 | 162 | 3.2 | 17.7 | 0.00 | 0.00 | 0.00 | 93 | 992.4 |
| 20260506134617 | 24 | 162 | 3.2 | 17.7 | 0.00 | 0.00 | 0.00 | 93 | 992.3 |
| 20260506134116 | 24 | 162 | 0.0 | 17.7 | 0.00 | 0.00 | 0.00 | 94 | 993.0 |
| 20260506132543 | 24 | 163 | 4.8 | 17.7 | 0.00 | 0.00 | 0.00 | 94 | 993.9 |
| 20260506131526 | 24 | 163 | 4.8 | 17.7 | 0.00 | 0.00 | 0.00 | 93 | 993.7 |
| 20260506131025 | 24 | 163 | 4.8 | 17.7 | 0.00 | 0.00 | 0.00 | 93 | 992.9 |
| 20260506130525 | 24 | 163 | 3.2 | 17.7 | 0.00 | 0.00 | 0.00 | 93 | 992.6 |
| 20260506130023 | 24 | 163 | 1.6 | 17.7 | 0.00 | 0.00 | 0.00 | 93 | 992.7 |
| 20260506125522 | 24 | 163 | 3.2 | 17.7 | 0.00 | 0.00 | 0.00 | 93 | 992.3 |
| 20260506125022 | 24 | 163 | 1.6 | 17.7 | 0.00 | 0.00 | 0.00 | 93 | 992.9 |
| 20260506124520 | 24 | 165 | 1.6 | 17.7 | 0.00 | 0.00 | 0.00 | 93 | 992.9 |
| 20260506122432 | 24 | 165 | 3.2 | 17.7 | 0.00 | 0.00 | 0.00 | 93 | 993.6 |
| 20260506121930 | 24 | 165 | 3.2 | 17.7 | 0.00 | 0.00 | 0.00 | 93 | 993.2 |
| 20260506121429 | 24 | 165 | 1.6 | 17.7 | 0.00 | 0.00 | 0.00 | 93 | 993.6 |
| 20260506120928 | 24 | 165 | 1.6 | 17.7 | 0.00 | 0.00 | 0.00 | 93 | 993.5 |
| 20260506120428 | 24 | 165 | 3.2 | 17.7 | 0.00 | 0.00 | 0.00 | 93 | 993.8 |
| 20260506115926 | 24 | 165 | 3.2 | 17.7 | 0.00 | 0.00 | 0.00 | 93 | 993.9 |
| 20260506115425 | 24 | 165 | 3.2 | 17.7 | 0.00 | 0.00 | 0.00 | 93 | 994.3 |
| 20260506114924 | 24 | 165 | 3.2 | 17.7 | 0.00 | 0.00 | 0.00 | 93 | 994.1 |
| 20260506114423 | 24 | 165 | 4.8 | 17.7 | 0.00 | 0.00 | 0.00 | 93 | 993.7 |
| 20260506113406 | 24 | 166 | 3.2 | 17.7 | 0.00 | 0.00 | 0.00 | 93 | 994.2 |
| 20260506112905 | 24 | 166 | 3.2 | 17.7 | 0.00 | 0.00 | 0.00 | 93 | 994.2 |
| 20260506112405 | 24 | 139 | 6.4 | 19.3 | 0.00 | 0.00 | 0.00 | 93 | 994.3 |
| 20260506111348 | 24 | 140 | 6.4 | 19.3 | 0.00 | 0.00 | 0.00 | 93 | 993.2 |
| 20260506110847 | 24 | 141 | 4.8 | 19.3 | 0.00 | 0.00 | 0.00 | 94 | 993.0 |
| 20260506110346 | 24 | 141 | 1.6 | 19.3 | 0.00 | 0.00 | 0.00 | 94 | 992.6 |
| 20260506105845 | 24 | 141 | 1.6 | 19.3 | 0.00 | 0.00 | 0.00 | 94 | 992.8 |
| 20260506105344 | 24 | 141 | 1.6 | 19.3 | 0.00 | 0.00 | 0.00 | 94 | 992.5 |
| 20260506104843 | 24 | 141 | 1.6 | 19.3 | 0.00 | 0.00 | 0.00 | 94 | 993.0 |
| 20260506104342 | 24 | 141 | 3.2 | 19.3 | 0.00 | 0.00 | 0.00 | 94 | 993.2 |
| 20260506103841 | 24 | 141 | 1.6 | 19.3 | 0.00 | 0.00 | 0.00 | 94 | 992.7 |
| 20260506103340 | 24 | 141 | 3.2 | 19.3 | 0.00 | 0.00 | 0.00 | 94 | 993.4 |
| 20260506102839 | 24 | 141 | 1.6 | 19.3 | 0.00 | 0.00 | 0.00 | 94 | 993.5 |
| 20260506101822 | 24 | 151 | 6.4 | 19.3 | 0.00 | 0.00 | 0.00 | 94 | 993.7 |
| 20260506100805 | 24 | 152 | 6.4 | 19.3 | 0.00 | 0.00 | 0.00 | 94 | 994.2 |
| 20260506100304 | 24 | 158 | 6.4 | 19.3 | 0.00 | 0.00 | 0.00 | 94 | 994.1 |
| 20260506095803 | 24 | 164 | 8.0 | 19.3 | 0.00 | 0.00 | 0.00 | 94 | 994.4 |
| 20260506094746 | 24 | 150 | 6.4 | 19.3 | 0.00 | 0.00 | 0.00 | 94 | 994.6 |
| 20260506094245 | 24 | 161 | 8.0 | 19.3 | 0.00 | 0.00 | 0.00 | 94 | 994.7 |
| 20260506093744 | 24 | 161 | 6.4 | 19.3 | 0.00 | 0.00 | 0.00 | 93 | 994.4 |
| 20260506092727 | 24 | 158 | 6.4 | 19.3 | 0.00 | 0.00 | 0.00 | 93 | 994.7 |
| 20260506091710 | 24 | 167 | 8.0 | 19.3 | 0.00 | 0.00 | 0.00 | 93 | 994.5 |
| 20260506091209 | 24 | 164 | 4.8 | 19.3 | 0.00 | 0.00 | 0.00 | 93 | 994.1 |
| 20260506090152 | 24 | 167 | 6.4 | 19.3 | 0.00 | 0.00 | 0.00 | 93 | 994.2 |
| 20260506085651 | 24 | 160 | 8.0 | 19.3 | 0.00 | 0.00 | 0.00 | 93 | 994.4 |
| 20260506085150 | 24 | 154 | 6.4 | 19.3 | 0.00 | 0.00 | 0.00 | 93 | 994.4 |
| 20260506084649 | 24 | 161 | 9.7 | 19.3 | 0.00 | 0.00 | 0.00 | 93 | 994.6 |
| 20260506084148 | 24 | 163 | 8.0 | 19.3 | 0.00 | 0.00 | 0.00 | 93 | 994.7 |
| 20260506083647 | 24 | 161 | 6.4 | 19.3 | 0.00 | 0.00 | 0.00 | 93 | 994.6 |
| 20260506083146 | 24 | 153 | 8.0 | 19.3 | 0.00 | 0.00 | 0.00 | 93 | 994.4 |
| 20260506082645 | 24 | 155 | 6.4 | 19.3 | 0.00 | 0.00 | 0.00 | 93 | 994.2 |
| 20260506082144 | 24 | 158 | 6.4 | 19.3 | 0.00 | 0.00 | 0.00 | 93 | 994.3 |
| 20260506081643 | 24 | 173 | 4.8 | 19.3 | 0.00 | 0.00 | 0.00 | 93 | 994.6 |
| 20260506081142 | 24 | 161 | 6.4 | 19.3 | 0.00 | 0.00 | 0.00 | 93 | 994.7 |
| 20260506080641 | 24 | 152 | 8.0 | 20.9 | 0.00 | 0.00 | 0.00 | 93 | 994.8 |
| 20260506080140 | 24 | 160 | 11.3 | 20.9 | 0.00 | 0.00 | 0.00 | 93 | 994.8 |
| 20260506073119 | 24 | 148 | 9.7 | 20.9 | 0.00 | 0.00 | 0.00 | 93 | 994.9 |
| 20260506072618 | 24 | 146 | 6.4 | 20.9 | 0.00 | 0.00 | 0.00 | 92 | 995.0 |
| 20260506072117 | 24 | 151 | 8.0 | 20.9 | 0.00 | 0.00 | 0.00 | 92 | 994.7 |
| 20260506071100 | 24 | 153 | 9.7 | 19.3 | 0.00 | 0.00 | 0.00 | 92 | 995.3 |
| 20260506070559 | 24 | 156 | 8.0 | 19.3 | 0.00 | 0.00 | 0.00 | 93 | 995.0 |
| 20260506062035 | 24 | 151 | 9.7 | 19.3 | 0.00 | 0.00 | 0.00 | 92 | 995.6 |
| 20260506061534 | 24 | 152 | 9.7 | 19.3 | 0.00 | 0.00 | 0.00 | 92 | 995.9 |
| 20260506061033 | 24 | 161 | 11.3 | 19.3 | 0.00 | 0.00 | 0.00 | 92 | 995.8 |
| 20260506060532 | 24 | 147 | 11.3 | 19.3 | 0.00 | 0.00 | 0.00 | 92 | 995.4 |
| 20260506050952 | 24 | 155 | 8.0 | 19.3 | 0.00 | 0.00 | 0.00 | 91 | 995.6 |
| 20260506050444 | 24 | 164 | 4.8 | 19.3 | 0.00 | 0.00 | 0.00 | 91 | 995.2 |
| 20260506044941 | 25 | 160 | 6.4 | 19.3 | 0.00 | 0.00 | 0.00 | 90 | 995.6 |
| 20260506044440 | 25 | 145 | 6.4 | 19.3 | 0.00 | 0.00 | 0.00 | 90 | 995.2 |
| 20260506043939 | 25 | 159 | 8.0 | 19.3 | 0.00 | 0.00 | 0.00 | 90 | 995.9 |
| 20260506042406 | 25 | 148 | 11.3 | 20.9 | 0.00 | 0.00 | 0.00 | 90 | 996.0 |
| 20260506041905 | 25 | 155 | 6.4 | 20.9 | 0.00 | 0.00 | 0.00 | 89 | 995.7 |
| 20260506041404 | 25 | 158 | 9.7 | 20.9 | 0.00 | 0.00 | 0.00 | 89 | 995.6 |
| 20260506035315 | 25 | 153 | 11.3 | 20.9 | 0.00 | 0.00 | 0.00 | 89 | 995.5 |
| 20260506034814 | 25 | 147 | 12.9 | 20.9 | 0.00 | 0.00 | 0.00 | 89 | 994.8 |
| 20260506034313 | 25 | 152 | 12.9 | 20.9 | 0.00 | 0.00 | 0.00 | 89 | 995.4 |
| 20260506033257 | 25 | 149 | 12.9 | 20.9 | 0.00 | 0.00 | 0.00 | 89 | 995.2 |
| 20260506032755 | 25 | 160 | 9.7 | 20.9 | 0.00 | 0.00 | 0.00 | 89 | 995.0 |
| 20260506032255 | 25 | 159 | 9.7 | 20.9 | 0.00 | 0.00 | 0.00 | 88 | 994.7 |
| 20260506031753 | 25 | 152 | 9.7 | 20.9 | 0.00 | 0.00 | 0.00 | 88 | 994.5 |
| 20260506030736 | 25 | 143 | 9.7 | 20.9 | 0.00 | 0.00 | 0.00 | 88 | 994.2 |
| 20260506025720 | 25 | 150 | 6.4 | 20.9 | 0.00 | 0.00 | 0.00 | 87 | 994.2 |
| 20260506025219 | 25 | 152 | 8.0 | 20.9 | 0.00 | 0.00 | 0.00 | 87 | 994.1 |
| 20260506024718 | 25 | 163 | 8.0 | 20.9 | 0.00 | 0.00 | 0.00 | 87 | 994.5 |
| 20260506024217 | 25 | 144 | 12.9 | 20.9 | 0.00 | 0.00 | 0.00 | 87 | 994.2 |
| 20260506023200 | 25 | 149 | 11.3 | 24.1 | 0.00 | 0.00 | 0.00 | 87 | 993.8 |
| 20260506022659 | 25 | 156 | 11.3 | 24.1 | 0.00 | 0.00 | 0.00 | 87 | 993.4 |
| 20260506021642 | 25 | 140 | 8.0 | 22.5 | 0.00 | 0.00 | 0.00 | 86 | 993.8 |
| 20260506020109 | 25 | 161 | 11.3 | 20.9 | 0.00 | 0.00 | 0.00 | 86 | 993.2 |
| 20260506015608 | 25 | 153 | 11.3 | 22.5 | 0.00 | 0.00 | 0.00 | 85 | 993.2 |
| 20260506015107 | 26 | 149 | 8.0 | 22.5 | 0.00 | 0.00 | 0.00 | 85 | 993.1 |
| 20260506014606 | 26 | 153 | 8.0 | 22.5 | 0.00 | 0.00 | 0.00 | 85 | 993.0 |
| 20260506014105 | 26 | 157 | 8.0 | 22.5 | 0.00 | 0.00 | 0.00 | 85 | 992.7 |
| 20260506013604 | 26 | 155 | 11.3 | 22.5 | 0.00 | 0.00 | 0.00 | 85 | 992.7 |
| 20260506013103 | 26 | 145 | 11.3 | 22.5 | 0.00 | 0.00 | 0.00 | 85 | 992.1 |
| 20260506012602 | 26 | 153 | 4.8 | 22.5 | 0.00 | 0.00 | 0.00 | 84 | 992.1 |
| 20260506012101 | 26 | 143 | 11.3 | 22.5 | 0.00 | 0.00 | 0.00 | 84 | 992.1 |
| 20260506011600 | 26 | 170 | 9.7 | 22.5 | 0.00 | 0.00 | 0.00 | 84 | 992.1 |
| 20260506011059 | 26 | 147 | 9.7 | 22.5 | 0.00 | 0.00 | 0.00 | 83 | 992.0 |
| 20260506010042 | 26 | 155 | 12.9 | 22.5 | 0.00 | 0.00 | 0.00 | 83 | 991.7 |
| 20260506005541 | 26 | 162 | 11.3 | 22.5 | 0.00 | 0.00 | 0.00 | 82 | 991.9 |
| 20260506005040 | 26 | 160 | 11.3 | 22.5 | 0.00 | 0.00 | 0.00 | 82 | 991.7 |
| 20260506004539 | 26 | 157 | 12.9 | 22.5 | 0.00 | 0.00 | 0.00 | 82 | 991.5 |
| 20260506004038 | 26 | 141 | 9.7 | 20.9 | 0.00 | 0.00 | 0.00 | 82 | 991.1 |
| 20260506003021 | 26 | 151 | 12.9 | 20.9 | 0.00 | 0.00 | 0.00 | 81 | 990.7 |
| 20260506002520 | 26 | 150 | 9.7 | 20.9 | 0.00 | 0.00 | 0.00 | 81 | 991.4 |
| 20260506002019 | 26 | 146 | 8.0 | 25.7 | 0.00 | 0.00 | 0.00 | 81 | 990.9 |
| 20260506001518 | 27 | 156 | 12.9 | 25.7 | 0.00 | 0.00 | 0.00 | 80 | 990.9 |
| 20260506001017 | 27 | 161 | 12.9 | 20.9 | 0.00 | 0.00 | 0.00 | 80 | 990.3 |
| 20260506000516 | 27 | 156 | 9.7 | 20.9 | 0.00 | 0.00 | 0.00 | 80 | 989.9 |
| 20260506000015 | 27 | 163 | 9.7 | 20.9 | 0.00 | 0.00 | 0.00 | 80 | 989.8 |
| 20260505235514 | 27 | 174 | 8.0 | 20.9 | 0.00 | 0.00 | 0.00 | 79 | 989.7 |
| 20260505235013 | 27 | 163 | 8.0 | 20.9 | 0.00 | 0.00 | 0.00 | 80 | 989.9 |
| 20260505234512 | 27 | 167 | 6.4 | 20.9 | 0.00 | 0.00 | 0.00 | 80 | 990.0 |
| 20260505234011 | 27 | 160 | 11.3 | 20.9 | 0.00 | 0.00 | 0.00 | 80 | 990.1 |
| 20260505233510 | 27 | 157 | 11.3 | 24.1 | 0.00 | 0.00 | 0.00 | 79 | 990.0 |
| 20260505232453 | 27 | 161 | 14.5 | 22.5 | 0.00 | 0.00 | 0.00 | 79 | 989.6 |
| 20260505231952 | 27 | 163 | 12.9 | 25.7 | 0.00 | 0.00 | 0.00 | 79 | 989.4 |
| 20260505231451 | 27 | 176 | 11.3 | 29.0 | 0.00 | 0.00 | 0.00 | 78 | 989.2 |
| 20260505230950 | 27 | 159 | 16.1 | 29.0 | 0.00 | 0.00 | 0.00 | 78 | 989.1 |
| 20260505225417 | 27 | 153 | 12.9 | 22.5 | 0.00 | 0.00 | 0.00 | 78 | 988.7 |
| 20260505224916 | 27 | 150 | 9.7 | 22.5 | 0.00 | 0.00 | 0.00 | 78 | 988.8 |
| 20260505224415 | 27 | 165 | 12.9 | 24.1 | 0.00 | 0.00 | 0.00 | 77 | 988.8 |
| 20260505223914 | 28 | 158 | 12.9 | 24.1 | 0.00 | 0.00 | 0.00 | 77 | 988.5 |
| 20260505223413 | 28 | 170 | 14.5 | 24.1 | 0.00 | 0.00 | 0.00 | 77 | 988.4 |
| 20260505222912 | 27 | 160 | 12.9 | 30.6 | 0.00 | 0.00 | 0.00 | 78 | 988.9 |
| 20260505222411 | 28 | 159 | 12.9 | 30.6 | 0.00 | 0.00 | 0.00 | 78 | 988.5 |
| 20260505221354 | 28 | 155 | 16.1 | 29.0 | 0.00 | 0.00 | 0.00 | 76 | 987.4 |
| 20260505220338 | 28 | 173 | 12.9 | 32.2 | 0.00 | 0.00 | 0.00 | 75 | 987.3 |
| 20260505214804 | 28 | 158 | 14.5 | 25.7 | 0.00 | 0.00 | 0.00 | 74 | 986.4 |
| 20260505214303 | 28 | 157 | 9.7 | 30.6 | 0.00 | 0.00 | 0.00 | 76 | 986.8 |
| 20260505213803 | 28 | 138 | 17.7 | 30.6 | 0.00 | 0.00 | 0.00 | 75 | 987.4 |
| 20260505213301 | 28 | 139 | 20.9 | 25.7 | 0.00 | 0.00 | 0.00 | 76 | 987.8 |
| 20260505212800 | 28 | 146 | 16.1 | 29.0 | 0.00 | 0.00 | 0.00 | 75 | 987.7 |
| 20260505212300 | 28 | 165 | 12.9 | 30.6 | 0.00 | 0.00 | 0.00 | 74 | 987.2 |
| 20260505211758 | 28 | 146 | 14.5 | 37.0 | 0.00 | 0.00 | 0.00 | 74 | 987.0 |
| 20260505211258 | 28 | 167 | 14.5 | 37.0 | 0.00 | 0.00 | 0.00 | 75 | 986.8 |
| 20260505205725 | 28 | 166 | 9.7 | 32.2 | 0.00 | 0.00 | 0.00 | 75 | 987.2 |
| 20260505205224 | 28 | 156 | 12.9 | 32.2 | 0.00 | 0.00 | 0.00 | 74 | 987.4 |
| 20260505204723 | 28 | 161 | 12.9 | 32.2 | 0.00 | 0.00 | 0.00 | 73 | 986.8 |
| 20260505204222 | 28 | 183 | 17.7 | 32.2 | 0.00 | 0.00 | 0.00 | 73 | 987.7 |
| 20260505203205 | 28 | 180 | 14.5 | 24.1 | 0.00 | 0.00 | 0.00 | 74 | 987.5 |
| 20260505202704 | 28 | 156 | 11.3 | 24.1 | 0.00 | 0.00 | 0.00 | 74 | 987.9 |
| 20260505202203 | 28 | 165 | 12.9 | 25.7 | 0.00 | 0.00 | 0.00 | 74 | 987.9 |
| 20260505201702 | 28 | 181 | 12.9 | 25.7 | 0.00 | 0.00 | 0.00 | 76 | 988.4 |
| 20260505201201 | 28 | 181 | 14.5 | 24.1 | 0.00 | 0.00 | 0.00 | 75 | 988.1 |